CW2840 Weather Reports


time (UTC)temp
C
wind
direction
speed
KPH
gust
KPH
rain 1hr
cm
rain 24hr
cm
rain mn
cm
humidity
%
barometer
mb
20260503004957 21 0 0.0 0.0 0.00 0.36 0.00 55 1018.7
20260503003459 21 0 0.0 11.3 0.00 0.41 0.00 53 1018.6
20260503002647 22 0 1.6 8.0 0.00 0.46 0.00 50 1018.5
20260503000458 22 59 0.0 11.3 0.00 0.53 0.00 48 1018.4
20260502234956 22 63 0.0 17.7 0.00 0.61 0.00 48 1018.2
20260502234147 23 6 4.8 14.5 0.00 0.66 0.00 45 1018.2
20260502231956 23 6 3.2 14.5 0.00 0.76 0.00 46 1018.1
20260502230457 22 10 4.8 14.5 0.00 1.19 0.00 48 1018.2
20260502224956 23 30 1.6 11.3 0.00 1.42 0.00 46 1018.2
20260502223458 23 350 6.4 11.3 0.00 1.47 0.00 45 1018.2
20260502221954 23 4 4.8 17.7 0.00 1.47 0.00 44 1018.3
20260502220455 23 0 4.8 14.5 0.00 1.50 0.00 42 1018.4
20260502214954 23 18 9.7 20.9 0.00 1.70 0.00 43 1018.3
20260502213456 23 102 4.8 29.0 0.00 1.73 0.00 44 1018.4
20260502211954 23 228 1.6 20.9 0.00 1.75 0.00 43 1018.3
20260502210454 23 52 4.8 17.7 0.00 1.78 0.00 43 1018.6
20260502205645 23 82 1.6 14.5 0.00 1.83 0.00 42 1018.7
20260502203454 23 317 8.0 22.5 0.00 1.93 0.00 41 1018.8
20260502202648 23 0 6.4 22.5 0.00 2.03 0.00 42 1019.0
20260502200454 23 125 6.4 22.5 0.00 2.11 0.00 45 1019.1
20260502194953 23 319 4.8 25.7 0.00 2.11 0.00 45 1019.2
20260502193452 23 109 8.0 22.5 0.00 2.13 0.00 45 1019.5
20260502191950 23 38 8.0 25.7 0.00 2.13 0.00 44 1019.7
20260502190453 23 0 8.0 40.2 0.00 2.18 0.00 44 1019.8
20260502184948 23 0 6.4 35.4 0.00 2.26 0.00 48 1019.9
20260502183451 22 89 9.7 32.2 0.00 2.29 0.00 45 1020.1
20260502181949 22 55 12.9 29.0 0.00 2.34 0.00 45 1020.3
20260502180452 22 0 16.1 40.2 0.00 2.36 0.00 45 1020.4
20260502170449 21 336 16.1 29.0 0.00 2.49 0.00 51 1020.8
20260502163446 21 0 9.7 22.5 0.00 2.54 0.00 57 1020.9
20260502161947 20 0 9.7 32.2 0.00 2.64 0.00 57 1020.9
20260502161151 20 0 8.0 32.2 0.00 2.77 0.00 59 1020.8
20260502151946 18 4 14.5 35.4 0.00 3.02 0.00 67 1020.7
20260502150447 17 45 4.8 29.0 0.00 3.10 0.00 71 1020.7
20260502130445 12 347 3.2 11.3 0.00 5.66 0.00 86 1019.5
20260502123444 11 0 4.8 14.5 0.00 6.43 0.00 88 1019.0
20260502121942 11 4 4.8 11.3 0.00 6.53 0.00 88 1018.8
20260502120443 11 0 3.2 11.3 0.00 7.09 0.00 88 1018.7
20260502114942 11 358 3.2 11.3 0.00 7.54 0.00 88 1018.5
20260502113443 11 0 3.2 8.0 0.00 7.59 0.00 88 1018.4
20260502111940 11 358 3.2 11.3 0.00 7.72 0.00 88 1018.3
20260502110442 11 3 4.8 11.3 0.00 7.85 0.00 88 1018.0
20260502104940 11 347 3.2 17.7 0.00 7.90 0.00 88 1017.9
20260502103440 11 337 8.0 17.7 0.00 8.03 0.00 88 1017.8
20260502101939 11 0 3.2 17.7 0.00 8.08 0.00 88 1017.7
20260502100441 11 0 4.8 17.7 0.00 8.13 0.00 88 1017.5
20260502090439 11 0 3.2 8.0 0.00 8.86 0.00 88 1016.3
20260502070435 12 0 4.8 14.5 0.00 9.60 0.00 86 1016.5
20260502064935 12 358 8.0 22.5 0.00 9.60 0.00 86 1016.2
20260502063437 12 27 8.0 20.9 0.00 9.60 0.00 87 1016.2
20260502061932 12 354 3.2 17.7 0.00 9.60 0.00 87 1016.0
20260502060435 12 7 12.9 25.7 0.00 9.65 0.00 88 1016.1
20260502054933 12 306 4.8 29.0 0.00 9.65 0.00 88 1016.0
20260502053435 12 58 9.7 29.0 0.00 9.65 0.00 88 1016.1
20260502051933 12 354 9.7 20.9 0.00 9.70 0.00 89 1016.1
20260502050434 12 1 4.8 25.7 0.00 9.80 0.00 89 1016.1
20260502044932 12 4 14.5 29.0 0.00 9.83 9.80 89 1016.1
20260502043434 13 0 6.4 25.7 0.00 9.83 9.80 89 1016.0
20260502042627 13 7 11.3 25.7 0.00 9.86 9.80 89 1015.9
20260502040432 13 1 8.0 25.7 0.00 9.86 9.80 89 1016.1
20260502034931 13 350 9.7 32.2 0.00 9.86 9.80 89 1016.0
20260502033432 13 340 14.5 25.7 0.00 9.86 9.80 89 1015.8
20260502031930 13 281 6.4 22.5 0.00 9.86 9.80 89 1015.6
20260502030431 13 343 9.7 25.7 0.05 9.86 9.80 89 1015.3
20260502024929 13 24 8.0 22.5 0.13 9.78 9.80 89 1014.6
20260502023433 13 0 9.7 35.4 0.20 9.78 9.80 89 1014.7
20260502021929 13 4 16.1 32.2 0.28 9.78 9.80 89 1014.6
20260502020430 13 0 9.7 29.0 0.30 9.78 9.75 89 1014.5
20260502014930 13 355 14.5 32.2 0.23 9.50 9.68 89 1014.2
20260502013429 13 347 16.1 40.2 0.20 9.50 9.60 89 1013.6
20260502012631 13 355 6.4 22.5 0.18 9.50 9.50 90 1014.2
20260502010430 13 319 8.0 46.7 0.18 9.50 9.45 89 1013.4